Showing default

KINEIS-4B, 63304

Orbit data source: Space-Track

KINEIS-4B, 63304 is a French payload satellite in SSO that was launched on Tue, 18 Mar 2025 UTC via an ELECTRON launch vehicle from the Rocket Lab Launch Complex (RLLC). Payload-class satellites include a variety of spacecraft equipped with specific instruments for various scientific and technological missions. These include communications satellites like Starlink; space stations such as the ISS; scientific satellites like the Hubble; Earth observation satellites from companies like Planet Labs, Umbra, and HawkEye 360; GPS; miniature CubeSats for education and research; and military/defense satellites.

Loading next visibility...
Identifier
63304, 2025-056E
Orbit
SSO
Last TLE update
10 hours ago
Origin
Manufacturer
KINEIS
Mission
Operational Commercial Communications
Bus & Motor
CUBESAT 16U, Unknown motor
Mass
28 kg wet, 28 kg dry
Launch date (UTC)
2025-03-18 (2 months ago)
Launch vehicle
ELECTRON
Launch site
Rocket Lab Launch Complex (RLLC)
Object type
Payload
Rocket body
Debris
Shape & HBR
Box + 2 Pan + 1 Ant, 1.6 m
Radar Cross Section
0.229 m², Medium (>0.1 m² and < 1m²)

Expand to show TLE details & history

TLE from 10 hours ago
0 KINEIS-4B
1 63304U 25056E   25128.84768042  .00002512  00000-0  39820-3 0  9996
2 63304  97.9769 255.3650 0004173 119.8277 240.3346 14.73049790  7622
Epoch: 2025-05-08T20:20Z
Definitive object data (Epoch: 2025-05-08T20:20:39.588Z)
Latitude
-0.00003°
Longitude
83.28776°
Altitude
655.812 km
Speed
7.529 km/s
True Right ascension
17h 01m 27s
True Declination
0° 00' 00"
Sunlit
Object was in full shadow at TLE epoch
Visualization TLE readout
Latitude
14.08736°
Longitude
81.68638°
Altitude
654.337 km
Speed
7.531 km/s
Apparent Right ascension
19h 57m 28s
Apparent Declination
-28° 55' 16"
Sunlit
Object is in full shadow
Visualization observer readout
Local Sidereal Time
14:20:11
Azimuth
116.09° SE
Elevation
-14.116°
Doppler factor
1
Orbital elements
Apogee altitude
651.335 km
Perigee altitude
645.47 km
Semi-major axis
7,026.539 km
Eccentricity
0.0004173
Inclination
97.9769°
RAAN
255.365°
Arg. of periapsis
119.8277°
True anomaly
240.29306°
Mean anomaly
240.3346°
Eccentric anomaly
240.31383°
Mean motion
3.68494 °/min
BSTAR
0.0003982
Orbital period
97.69 mins
Loading maneuver chart data...
Loading SW <> Apogee altitude chart data...
Loading historical data...
Loading historical data...
Loading historical data...
Loading historical data...
Loading historical data...
Loading historical data...
Loading historical data...

KINEIS-4B Visibility forecast

Observer location: undefined°, undefined°

Span
Click to sort rows by Start time (UTC) header in descending order
Start Az.
Max El. time (UTC)
Max El. Az.
Max El.
End time (UTC)
End Az.
7 mins2025-05-09 07:53:23.694Z136.984° SSE2025-05-09 07:56:23.694Z84.501° E32.982°2025-05-09 08:00:23.694Z4.776° NNE
4 mins2025-05-09 09:32:23.694Z246.846° WSW2025-05-09 09:33:23.694Z263.037° W16.556°2025-05-09 09:36:23.694Z306.883° NW
7 mins2025-05-09 21:22:23.694Z9.539° NNE2025-05-09 21:25:23.694Z338.298° N43.914°2025-05-09 21:29:23.694Z198.126° SSW
|